User: anonymous   Login
Location: Caltech
(34.1382°N, 118.1253°W)
Time: 10:36:07
(UTC-07:00)
Language:

Iridium 70 - Orbit

View from above orbital plane
View from above orbital plane
View from above satellite
View from above satellite

Ground track
Ground track

The orbit data is extracted from the following two-line orbital elements,

1 25342U 98032A   15109.29985208  .00000134  00000-0  40864-4 0  9991
2 25342 086.4022 194.3689 0002432 096.3157 323.9677 14.34214617885889
Epoch (UTC): 19 April 2015 07:11:47
Eccentricity: 0.0002432
inclination: 86.4022°
perigee height: 776 km
apogee height: 779 km
right ascension of ascending node: 194.3689°
argument of perigee: 96.3157°
revolutions per day: 14.34214617
mean anomaly at epoch: 323.9677°
orbit number at epoch: 88588

The dashed part of the orbit path shows where the satellite is in the earth's shadow,  

DLR